UAL5488 KLAX-KIAH

Flight info

Callsign UAL5488
Flight time N/A
Altitude 35000
Route DOTSS2 CNERY BLH SPTFR Q4 FUSCO DIESL TTORO3
Aircraft B77W/H-SDE1E2E3FGHIJ2J3J4J5M1RWXY/LB1D1

Departure

Time 2026-04-21 21:30
Airport Los Angeles International Airport (KLAX)

Arrival

Time N/A
Airport George Bush Intercontinental Airport (KIAH)
Time Latitude Longitude Altitude Speed Heading
2026-04-21 20:25 33.94026 -118.39995 101 ft 0 kts 49°
2026-04-21 21:11 33.94012 -118.40016 100 ft 3 kts 64°
2026-04-21 21:12 33.94007 -118.40036 101 ft 2 kts 102°
2026-04-21 21:12 33.94012 -118.40052 100 ft 2 kts 139°
2026-04-21 21:12 33.94021 -118.40060 99 ft 2 kts 154°
2026-04-21 21:12 33.94032 -118.40065 100 ft 2 kts 163°
2026-04-21 21:13 33.94043 -118.40068 101 ft 2 kts 168°
2026-04-21 21:13 33.94053 -118.40071 99 ft 1 kts 171°
2026-04-21 21:17 33.94038 -118.40068 100 ft 4 kts 171°
2026-04-21 21:17 33.94020 -118.40064 100 ft 0 kts 171°
2026-04-21 21:17 33.94017 -118.40064 102 ft 3 kts 171°
2026-04-21 21:18 33.93985 -118.40054 103 ft 8 kts 171°
2026-04-21 21:18 33.93909 -118.40037 106 ft 12 kts 145°
2026-04-21 21:18 33.93885 -118.39941 109 ft 12 kts 87°
2026-04-21 21:18 33.93895 -118.39837 108 ft 12 kts 83°
2026-04-21 21:19 33.93905 -118.39733 108 ft 12 kts 84°
2026-04-21 21:19 33.93914 -118.39630 108 ft 12 kts 84°
2026-04-21 21:19 33.93924 -118.39525 108 ft 12 kts 82°
2026-04-21 21:19 33.93935 -118.39421 107 ft 12 kts 83°
2026-04-21 21:20 33.93946 -118.39318 106 ft 13 kts 82°
2026-04-21 21:20 33.93958 -118.39215 106 ft 13 kts 83°
2026-04-21 21:20 33.93959 -118.39206 107 ft 0 kts 83°
2026-04-21 21:20 33.93961 -118.39185 108 ft 5 kts 82°
2026-04-21 21:21 33.93967 -118.39125 106 ft 8 kts 83°
2026-04-21 21:21 33.93974 -118.39055 107 ft 8 kts 83°
2026-04-21 21:21 33.93981 -118.38986 107 ft 8 kts 83°
2026-04-21 21:21 33.93988 -118.38917 107 ft 8 kts 83°
2026-04-21 21:22 33.93994 -118.38848 107 ft 8 kts 83°
2026-04-21 21:22 33.94002 -118.38778 107 ft 8 kts 82°
2026-04-21 21:22 33.94010 -118.38709 107 ft 8 kts 82°
2026-04-21 21:22 33.94017 -118.38639 107 ft 9 kts 83°
2026-04-21 21:23 33.94024 -118.38568 108 ft 9 kts 84°
2026-04-21 21:23 33.94030 -118.38497 108 ft 9 kts 84°
2026-04-21 21:23 33.94036 -118.38426 108 ft 9 kts 82°
2026-04-21 21:23 33.94044 -118.38355 108 ft 9 kts 82°
2026-04-21 21:24 33.94053 -118.38284 108 ft 9 kts 82°
2026-04-21 21:24 33.94061 -118.38212 108 ft 9 kts 82°
2026-04-21 21:24 33.94071 -118.38115 108 ft 13 kts 82°
2026-04-21 21:24 33.94073 -118.38040 108 ft 0 kts 102°
2026-04-21 21:29 33.94069 -118.38029 107 ft 5 kts 120°
2026-04-21 21:29 33.94025 -118.38006 110 ft 8 kts 168°
2026-04-21 21:29 33.93986 -118.38045 112 ft 8 kts 252°
2026-04-21 21:30 33.93965 -118.38196 112 ft 50 kts 263°
2026-04-21 21:30 33.93878 -118.39054 111 ft 155 kts 263°
2026-04-21 21:30 33.93722 -118.40700 498 ft 215 kts 261°
2026-04-21 21:30 33.93569 -118.42467 2011 ft 224 kts 268°
2026-04-21 21:31 33.93914 -118.44418 2626 ft 241 kts 281°
2026-04-21 21:31 33.94321 -118.46453 3030 ft 256 kts 279°
2026-04-21 21:31 33.94442 -118.48559 3607 ft 256 kts 262°
2026-04-21 21:31 33.94302 -118.50670 4476 ft 251 kts 262°
2026-04-21 21:32 33.94118 -118.52762 4977 ft 252 kts 261°
2026-04-21 21:32 33.93930 -118.54895 5005 ft 259 kts 262°
2026-04-21 21:32 33.93750 -118.57060 5016 ft 259 kts 262°
2026-04-21 21:32 33.93458 -118.59167 4987 ft 252 kts 244°
2026-04-21 21:33 33.92337 -118.60711 5597 ft 248 kts 212°
2026-04-21 21:33 33.90723 -118.61470 6524 ft 252 kts 194°
2026-04-21 21:33 33.88961 -118.61617 7358 ft 260 kts 176°
2026-04-21 21:33 33.87194 -118.61003 8081 ft 270 kts 163°
2026-04-21 21:34 33.85454 -118.60110 8909 ft 274 kts 162°
2026-04-21 21:34 33.83698 -118.59170 9791 ft 277 kts 162°
2026-04-21 21:34 33.81917 -118.58229 10479 ft 285 kts 163°
2026-04-21 21:34 33.80014 -118.57249 10708 ft 311 kts 163°
2026-04-21 21:35 33.77933 -118.56195 10914 ft 337 kts 163°
2026-04-21 21:35 33.75684 -118.55069 11176 ft 361 kts 163°
2026-04-21 21:35 33.73324 -118.53891 11771 ft 373 kts 163°
2026-04-21 21:35 33.71003 -118.52399 12321 ft 391 kts 148°
2026-04-21 21:36 33.69136 -118.49959 13006 ft 414 kts 127°
2026-04-21 21:36 33.67949 -118.46743 13768 ft 429 kts 112°
2026-04-21 21:36 33.67046 -118.43298 14394 ft 437 kts 112°
2026-04-21 21:36 33.66082 -118.39808 15148 ft 442 kts 113°
2026-04-21 21:37 33.65206 -118.36237 15949 ft 449 kts 107°
2026-04-21 21:37 33.64640 -118.32527 16738 ft 456 kts 101°
2026-04-21 21:37 33.64362 -118.28703 17445 ft 465 kts 95°
2026-04-21 21:37 33.64341 -118.24803 18123 ft 472 kts 93°
2026-04-21 21:38 33.64373 -118.20831 18751 ft 477 kts 92°
2026-04-21 21:38 33.64415 -118.16838 19406 ft 481 kts 93°
2026-04-21 21:38 33.64445 -118.12803 20049 ft 485 kts 93°
2026-04-21 21:38 33.64459 -118.08746 20682 ft 489 kts 94°
2026-04-21 21:39 33.64461 -118.04653 21282 ft 493 kts 94°
2026-04-21 21:39 33.64455 -118.00526 21907 ft 498 kts 94°
2026-04-21 21:39 33.64448 -117.96334 22528 ft 502 kts 94°
2026-04-21 21:39 33.64440 -117.92129 23135 ft 506 kts 94°
2026-04-21 21:40 33.64431 -117.87881 23703 ft 510 kts 95°
2026-04-21 21:40 33.64388 -117.83609 24177 ft 512 kts 98°
2026-04-21 21:40 33.64055 -117.79419 24659 ft 511 kts 104°
2026-04-21 21:40 33.63419 -117.75217 25128 ft 511 kts 110°
2026-04-21 21:41 33.62456 -117.71125 25563 ft 510 kts 114°
2026-04-21 21:41 33.61411 -117.67049 26070 ft 513 kts 114°
2026-04-21 21:41 33.60355 -117.62944 26567 ft 516 kts 114°
2026-04-21 21:41 33.59307 -117.58813 27032 ft 519 kts 114°
2026-04-21 21:42 33.58264 -117.54652 27444 ft 523 kts 114°
2026-04-21 21:42 33.57222 -117.50454 27847 ft 527 kts 114°
2026-04-21 21:42 33.56175 -117.46213 28220 ft 531 kts 114°
2026-04-21 21:42 33.55122 -117.41957 28590 ft 534 kts 114°
2026-04-21 21:43 33.54422 -117.39132 28817 ft 536 kts 114°
2026-04-21 21:43 33.53356 -117.34836 29173 ft 538 kts 114°
2026-04-21 21:43 33.52280 -117.30526 29522 ft 541 kts 114°
2026-04-21 21:43 33.51295 -117.26148 29881 ft 548 kts 109°
2026-04-21 21:44 33.50622 -117.21631 30356 ft 551 kts 104°
2026-04-21 21:44 33.50265 -117.17051 30801 ft 554 kts 97°
2026-04-21 21:44 33.50200 -117.12427 31220 ft 555 kts 96°
2026-04-21 21:44 33.50180 -117.07785 31579 ft 556 kts 95°
2026-04-21 21:45 33.50163 -117.03160 31957 ft 555 kts 95°
2026-04-21 21:45 33.50133 -116.98544 32366 ft 553 kts 95°
2026-04-21 21:45 33.50084 -116.93936 32792 ft 551 kts 95°
2026-04-21 21:45 33.50022 -116.89351 33214 ft 550 kts 96°
2026-04-21 21:46 33.49950 -116.84776 33585 ft 549 kts 96°
2026-04-21 21:46 33.49875 -116.80213 33952 ft 548 kts 95°
2026-04-21 21:46 33.49798 -116.75638 34280 ft 547 kts 95°
2026-04-21 21:46 33.49722 -116.71094 34636 ft 545 kts 95°
2026-04-21 21:47 33.49647 -116.66621 34974 ft 543 kts 95°
2026-04-21 21:47 33.49489 -116.57535 35005 ft 546 kts 95°
2026-04-21 21:48 33.49328 -116.48485 35007 ft 543 kts 95°
2026-04-21 21:48 33.49164 -116.39432 34986 ft 544 kts 95°
2026-04-21 21:49 33.49032 -116.30355 34954 ft 544 kts 95°
2026-04-21 21:49 33.48900 -116.21299 34950 ft 544 kts 95°
2026-04-21 21:50 33.48754 -116.12229 34937 ft 544 kts 95°
2026-04-21 21:50 33.49294 -116.03139 34932 ft 549 kts 82°
2026-04-21 21:51 33.51135 -115.94250 34925 ft 551 kts 71°
2026-04-21 21:51 33.53748 -115.85613 34927 ft 552 kts 70°
2026-04-21 21:52 33.56353 -115.76967 34923 ft 551 kts 71°
2026-04-21 21:52 33.58876 -115.68293 34923 ft 549 kts 71°
2026-04-21 21:53 33.60938 -115.59509 34920 ft 546 kts 82°
2026-04-21 21:53 33.61709 -115.50553 34925 ft 541 kts 93°
2026-04-21 21:54 33.61485 -115.41558 34928 ft 538 kts 96°
2026-04-21 21:54 33.61180 -115.32589 34918 ft 538 kts 95°
2026-04-21 21:55 33.60921 -115.23612 34923 ft 540 kts 95°
2026-04-21 21:55 33.60687 -115.14608 34924 ft 540 kts 95°
2026-04-21 21:56 33.60447 -115.05581 34937 ft 541 kts 95°
2026-04-21 21:56 33.60196 -114.96557 34941 ft 541 kts 95°
2026-04-21 21:57 33.59938 -114.87529 34949 ft 541 kts 95°
2026-04-21 21:57 33.59650 -114.78507 34950 ft 540 kts 97°
2026-04-21 21:58 33.58524 -114.69674 34953 ft 533 kts 107°
2026-04-21 21:58 33.56822 -114.61029 34947 ft 532 kts 107°
2026-04-21 21:59 33.55136 -114.52438 34928 ft 532 kts 107°
2026-04-21 21:59 33.53483 -114.43800 34930 ft 532 kts 107°
2026-04-21 22:00 33.51837 -114.35142 34936 ft 532 kts 107°
2026-04-21 22:00 33.50186 -114.26495 34921 ft 532 kts 107°
2026-04-21 22:01 33.48527 -114.17859 34938 ft 532 kts 106°
2026-04-21 22:01 33.46862 -114.09235 34933 ft 532 kts 106°
2026-04-21 22:02 33.45190 -114.00606 34939 ft 531 kts 106°
2026-04-21 22:02 33.43515 -113.91997 34976 ft 530 kts 106°
2026-04-21 22:03 33.41838 -113.83407 35019 ft 530 kts 106°
2026-04-21 22:03 33.40156 -113.74819 35063 ft 530 kts 106°
2026-04-21 22:04 33.38130 -113.66443 35087 ft 526 kts 111°
2026-04-21 22:04 33.35793 -113.58148 35069 ft 526 kts 112°
2026-04-21 22:05 33.33451 -113.49848 35026 ft 526 kts 111°
2026-04-21 22:05 33.31142 -113.41560 34974 ft 525 kts 111°
2026-04-21 22:06 33.28841 -113.33274 34933 ft 525 kts 111°
2026-04-21 22:06 33.26534 -113.24993 34920 ft 524 kts 111°
2026-04-21 22:07 33.24222 -113.16728 34916 ft 524 kts 111°
2026-04-21 22:07 33.21904 -113.08463 34928 ft 524 kts 111°
2026-04-21 22:08 33.19582 -113.00215 34927 ft 524 kts 111°
2026-04-21 22:08 33.17254 -112.91964 34923 ft 524 kts 111°
2026-04-21 22:09 33.14939 -112.83779 34925 ft 523 kts 111°
2026-04-21 22:09 33.12605 -112.75553 34923 ft 523 kts 111°
2026-04-21 22:10 33.10267 -112.67342 34932 ft 523 kts 111°
2026-04-21 22:10 33.07922 -112.59121 34929 ft 523 kts 111°
2026-04-21 22:11 33.05578 -112.50923 34928 ft 523 kts 110°
2026-04-21 22:11 33.03311 -112.42747 34924 ft 523 kts 110°
2026-04-21 22:12 33.01068 -112.34498 34930 ft 522 kts 109°
2026-04-21 22:12 32.98818 -112.26264 34926 ft 522 kts 110°
2026-04-21 22:13 32.96554 -112.18044 34939 ft 522 kts 110°
2026-04-21 22:13 32.94283 -112.09842 34947 ft 521 kts 110°
2026-04-21 22:14 32.92007 -112.01645 34964 ft 521 kts 109°
2026-04-21 22:14 32.89742 -111.93508 34969 ft 521 kts 109°
2026-04-21 22:15 32.87459 -111.85326 34980 ft 521 kts 109°
2026-04-21 22:15 32.85169 -111.77143 34981 ft 521 kts 109°
2026-04-21 22:16 32.82874 -111.68967 34972 ft 521 kts 109°
2026-04-21 22:16 32.80576 -111.60802 34968 ft 520 kts 109°
2026-04-21 22:17 32.78274 -111.52647 34969 ft 520 kts 109°
2026-04-21 22:17 32.75974 -111.44519 34975 ft 519 kts 109°
2026-04-21 22:18 32.73665 -111.36384 34988 ft 519 kts 109°
2026-04-21 22:18 32.71355 -111.28270 34991 ft 519 kts 109°
2026-04-21 22:19 32.69052 -111.20200 34993 ft 518 kts 109°
2026-04-21 22:19 32.66735 -111.12104 34991 ft 518 kts 109°
2026-04-21 22:20 32.64413 -111.04014 34996 ft 517 kts 109°
2026-04-21 22:20 32.62089 -110.95939 34995 ft 517 kts 109°
2026-04-21 22:21 32.59761 -110.87869 35000 ft 517 kts 109°
2026-04-21 22:21 32.57426 -110.79802 35000 ft 517 kts 109°
2026-04-21 22:22 32.55084 -110.71730 34996 ft 518 kts 109°
2026-04-21 22:22 32.52753 -110.63715 35005 ft 518 kts 108°
2026-04-21 22:23 32.50397 -110.55639 35012 ft 519 kts 109°
2026-04-21 22:23 32.48028 -110.47542 35008 ft 520 kts 109°
2026-04-21 22:24 32.45655 -110.39453 35009 ft 521 kts 109°
2026-04-21 22:24 32.43268 -110.31337 35001 ft 521 kts 109°
2026-04-21 22:25 32.40892 -110.23280 34994 ft 521 kts 109°
2026-04-21 22:25 32.38499 -110.15185 34985 ft 521 kts 109°
2026-04-21 22:26 32.36100 -110.07093 34972 ft 521 kts 109°
2026-04-21 22:26 32.33701 -109.99021 34958 ft 519 kts 109°
2026-04-21 22:27 32.31301 -109.90965 34953 ft 519 kts 109°
2026-04-21 22:27 32.29170 -109.82820 34944 ft 517 kts 101°
2026-04-21 22:28 32.28074 -109.74434 34944 ft 516 kts 96°
2026-04-21 22:28 32.27131 -109.66068 34928 ft 517 kts 96°
2026-04-21 22:29 32.26145 -109.57636 34933 ft 517 kts 97°
2026-04-21 22:29 32.25124 -109.49223 34925 ft 517 kts 97°
2026-04-21 22:30 32.24263 -109.42227 34928 ft 517 kts 97°
2026-04-21 22:30 32.23223 -109.33818 34934 ft 517 kts 97°
2026-04-21 22:31 32.22180 -109.25405 34932 ft 518 kts 97°
2026-04-21 22:31 32.21132 -109.16999 34931 ft 518 kts 97°
2026-04-21 22:32 32.20078 -109.08588 34936 ft 518 kts 97°
2026-04-21 22:32 32.19016 -109.00164 34979 ft 518 kts 97°
2026-04-21 22:33 32.17951 -108.91759 35005 ft 518 kts 98°
2026-04-21 22:33 32.16879 -108.83345 35035 ft 518 kts 98°
2026-04-21 22:34 32.15811 -108.75004 35054 ft 518 kts 98°
2026-04-21 22:34 32.14728 -108.66601 35047 ft 518 kts 98°
2026-04-21 22:35 32.13641 -108.58201 35031 ft 517 kts 98°
2026-04-21 22:35 32.12548 -108.49803 35001 ft 517 kts 98°
2026-04-21 22:36 32.10899 -108.37219 34953 ft 517 kts 98°
2026-04-21 22:36 32.09793 -108.28835 34947 ft 517 kts 99°
2026-04-21 22:37 32.08688 -108.20501 34948 ft 518 kts 99°
2026-04-21 22:37 32.07569 -108.12103 34941 ft 518 kts 99°
2026-04-21 22:38 32.06446 -108.03721 34957 ft 518 kts 99°
2026-04-21 22:38 32.05317 -107.95343 34985 ft 517 kts 99°
2026-04-21 22:39 32.04183 -107.86960 35001 ft 517 kts 99°
2026-04-21 22:39 32.03044 -107.78591 35013 ft 517 kts 99°
2026-04-21 22:40 32.01901 -107.70230 35004 ft 517 kts 100°
2026-04-21 22:40 32.00759 -107.61921 34984 ft 517 kts 100°
2026-04-21 22:41 31.99603 -107.53554 34947 ft 517 kts 100°
2026-04-21 22:41 31.98444 -107.45199 34911 ft 517 kts 100°
2026-04-21 22:42 31.97276 -107.36830 34905 ft 517 kts 100°
2026-04-21 22:42 31.96096 -107.28415 34913 ft 525 kts 100°
2026-04-21 22:43 31.94889 -107.19848 34903 ft 534 kts 100°
2026-04-21 22:43 31.93659 -107.11164 34909 ft 540 kts 101°
2026-04-21 22:44 31.92414 -107.02408 34953 ft 544 kts 101°
2026-04-21 22:44 31.91157 -106.93620 35008 ft 545 kts 101°
2026-04-21 22:45 31.89898 -106.84861 35054 ft 546 kts 101°
2026-04-21 22:45 31.88623 -106.76040 35083 ft 546 kts 101°
2026-04-21 22:46 31.87344 -106.67230 35078 ft 545 kts 101°
2026-04-21 22:46 31.86067 -106.58477 35076 ft 543 kts 101°
2026-04-21 22:47 31.84783 -106.49725 35070 ft 542 kts 101°
2026-04-21 22:47 31.83496 -106.40996 35080 ft 540 kts 101°
2026-04-21 22:48 31.82210 -106.32300 35064 ft 540 kts 101°
2026-04-21 22:48 31.80973 -106.23639 35045 ft 540 kts 99°
2026-04-21 22:49 31.79950 -106.14879 34996 ft 541 kts 99°
2026-04-21 22:49 31.78969 -106.06107 34937 ft 541 kts 99°
2026-04-21 22:50 31.77947 -105.97326 34890 ft 542 kts 99°
2026-04-21 22:50 31.76896 -105.88558 34883 ft 542 kts 99°
2026-04-21 22:51 31.75830 -105.79776 34886 ft 542 kts 99°
2026-04-21 22:51 31.74767 -105.71045 34880 ft 543 kts 100°
2026-04-21 22:52 31.73694 -105.62257 34888 ft 543 kts 100°
2026-04-21 22:52 31.72614 -105.53467 34888 ft 543 kts 100°
2026-04-21 22:53 31.71529 -105.44687 34891 ft 543 kts 100°
2026-04-21 22:53 31.70437 -105.35901 34893 ft 544 kts 100°
2026-04-21 22:54 31.69337 -105.27108 34891 ft 544 kts 100°
2026-04-21 22:54 31.68230 -105.18305 34902 ft 545 kts 100°
2026-04-21 22:55 31.67117 -105.09501 34900 ft 545 kts 100°
2026-04-21 22:55 31.65997 -105.00692 34909 ft 546 kts 100°
2026-04-21 22:56 31.64877 -104.91942 34909 ft 546 kts 101°
2026-04-21 22:56 31.63744 -104.83130 34922 ft 546 kts 101°
2026-04-21 22:57 31.62603 -104.74305 34922 ft 547 kts 101°
2026-04-21 22:57 31.61454 -104.65468 34925 ft 548 kts 101°
2026-04-21 22:58 31.60299 -104.56637 34922 ft 547 kts 101°
2026-04-21 22:58 31.59141 -104.47826 34935 ft 546 kts 101°
2026-04-21 22:59 31.57976 -104.39017 34934 ft 546 kts 101°
2026-04-21 22:59 31.56807 -104.30220 34937 ft 546 kts 101°
2026-04-21 23:00 31.55631 -104.21426 34939 ft 546 kts 101°
2026-04-21 23:00 31.54450 -104.12636 34942 ft 546 kts 101°
2026-04-21 23:01 31.53262 -104.03836 34942 ft 546 kts 101°
2026-04-21 23:01 31.52076 -103.95107 34933 ft 546 kts 101°
2026-04-21 23:02 31.50876 -103.86312 34946 ft 546 kts 102°
2026-04-21 23:02 31.49670 -103.77522 34966 ft 546 kts 102°
2026-04-21 23:03 31.48456 -103.68726 34990 ft 547 kts 102°
2026-04-21 23:03 31.47237 -103.59921 35013 ft 547 kts 102°
2026-04-21 23:04 31.46067 -103.51106 35022 ft 547 kts 101°
2026-04-21 23:04 31.45017 -103.42331 35016 ft 547 kts 100°
2026-04-21 23:05 31.43967 -103.33503 34987 ft 547 kts 100°
2026-04-21 23:05 31.42888 -103.24664 34970 ft 547 kts 101°
2026-04-21 23:06 31.41793 -103.15838 34964 ft 547 kts 101°
2026-04-21 23:06 31.40701 -103.07096 34956 ft 546 kts 101°
2026-04-21 23:07 31.39597 -102.98298 34960 ft 546 kts 101°
2026-04-21 23:07 31.38488 -102.89494 34963 ft 546 kts 101°
2026-04-21 23:08 31.37373 -102.80702 34973 ft 546 kts 101°
2026-04-21 23:08 31.36253 -102.71913 34978 ft 546 kts 101°
2026-04-21 23:09 31.35127 -102.63133 34986 ft 546 kts 101°
2026-04-21 23:09 31.33996 -102.54356 34990 ft 546 kts 101°
2026-04-21 23:10 31.32857 -102.45570 34999 ft 546 kts 101°
2026-04-21 23:10 31.31720 -102.36843 35008 ft 546 kts 101°
2026-04-21 23:11 31.30569 -102.28062 35015 ft 547 kts 101°